This is the latest recevied weather packets stored in our database for station/object LZ0VRC-10. If no packets are shown the sender has not sent any weather packets the latest 10 day(s).
| Time | Temp. | Humidity | Pressure | Rain* | Wind** | Luminosity | Snow |
|---|---|---|---|---|---|---|---|
| 1777885507 | 20.56° C | 29% | 1019.9 hPa | - | - | - | - |
| 1777885503 | 20.56° C | 29% | 1019.9 hPa | - | - | - | - |
| 1777884607 | 20.56° C | 29% | 1019.9 hPa | - | - | - | - |
| 1777884603 | 20.56° C | 29% | 1019.9 hPa | - | - | - | - |
| 1777883707 | 19.44° C | 30% | 1019.9 hPa | - | - | - | - |
| 1777883703 | 19.44° C | 30% | 1019.9 hPa | - | - | - | - |
| 1777882803 | 20° C | 29% | 1019.9 hPa | - | - | - | - |
| 1777881908 | 20° C | 28% | 1019.9 hPa | - | - | - | - |
| 1777881903 | 20° C | 28% | 1019.9 hPa | - | - | - | - |
| 1777881008 | 18.89° C | 29% | 1019.9 hPa | - | - | - | - |
| 1777881003 | 18.89° C | 29% | 1019.9 hPa | - | - | - | - |
| 1777880103 | 18.89° C | 29% | 1020 hPa | - | - | - | - |
| 1777879203 | 17.78° C | 31% | 1019.9 hPa | - | - | - | - |
| 1777878303 | 17.22° C | 32% | 1019.8 hPa | - | - | - | - |
| 1777877408 | 16.67° C | 37% | 1019.7 hPa | - | - | - | - |
| 1777877403 | 16.67° C | 37% | 1019.7 hPa | - | - | - | - |
| 1777876508 | 16.67° C | 37% | 1019.7 hPa | - | - | - | - |
| 1777876503 | 16.67° C | 37% | 1019.7 hPa | - | - | - | - |
| 1777875603 | 18.89° C | 33% | 1019.7 hPa | - | - | - | - |
| 1777874891 | 18.89° C | 34% | 1019.8 hPa | - | - | - | - |
| 1777874708 | 18.89° C | 34% | 1019.8 hPa | - | - | - | - |
| 1777874703 | 18.89° C | 34% | 1019.8 hPa | - | - | - | - |
| 1777873808 | 15.56° C | 39% | 1019.7 hPa | - | - | - | - |
| 1777873803 | 15.56° C | 39% | 1019.7 hPa | - | - | - | - |
| 1777872903 | 13.89° C | 43% | 1019.7 hPa | - | - | - | - |
* Rain since midnight (hover to see other rain measurements)
** Current wind speed in m/s (hover to see current wind gust speed)